Regional Weather Roundup
Issued by NWS Portland, ME

Home | Current Version | Previous Version | Text Only | Print | Product List | Glossary On
Versions: 1 2 3 4 5 6 7 8 9 10 11 12 13 14 15 16 17 18 19 20 21 22 23 24 25 26 27 28 29 30 31 32 33 34 35 36 37 38 39 40 41 42 43 44 45 46 47 48 49 50
000
ASUS41 KGYX 211610
RWRGYX
WEATHER ROUNDUP FOR MAINE AND NEW HAMPSHIRE
NATIONAL WEATHER SERVICE GRAY ME
1200 PM EDT THU SEP 21 2017

MEZ002-005-006-010-012-015-018-020-021-024-026-027-029-211700-
MAINE

CITY           SKY/WX    TMP DP  RH WIND       PRES   REMARKS
PORTLAND       PTSUNNY   73  52  47 N17G24    30.08S
SANFORD        CLOUDY    73  57  57 N16G23    30.07F
BAR HARBOR     MOSUNNY   69  49  48 NE17G26   30.09S
WISCASSET      SUNNY     73  51  46 NE9G18    30.10S
ROCKLAND       MOSUNNY   69  54  58 N8G20     30.08F
FRYEBURG         N/A     72  49  44 N13       30.13F
LEWISTONAUBURN SUNNY     70  51  51 N15G22    30.11F
AUGUSTA        MOSUNNY   70  50  49 NE14G22   30.12F
WATERVILLE     CLOUDY    69  50  50 NE12      30.10F
BANGOR         CLOUDY    73  49  42 NE10G21   30.12F
GREENVILLE       N/A     66  46  48 E9        30.16F
MILLINOCKET    SUNNY     69  46  43 NE12G20   30.17F
HOULTON        SUNNY     69  48  47 NE12G20   30.17S
PRESQUE ISLE   SUNNY     68  48  48 N8        30.20F
FRENCHVILLE    SUNNY     66  45  46 NE9       30.21S
CARIBOU        SUNNY     69  46  43 E8        30.19S
$$

NHZ002-005-008-009-011-012-014-211700-
NEW HAMPSHIRE

CITY           SKY/WX    TMP DP  RH WIND       PRES   REMARKS
PORTSMOUTH     PTSUNNY   72  56  55 NE12      30.04F
ROCHESTER      MOSUNNY   72  53  51 NE13G21   30.07S
NASHUA         CLOUDY    71  59  65 N9        30.06S
MANCHESTER     PTSUNNY   73  54  51 N16       30.05S
CONCORD        MOSUNNY   75  53  46 NE13G20   30.07F
LACONIA        SUNNY     72  53  51 NE15G21   30.10F
BERLIN         CLOUDY    72  49  44 N7        30.15F
WHITEFIELD     CLOUDY    70  53  54 E10       30.13F
JAFFREY        PTSUNNY   71  59  65 VRB6      30.08F
KEENE          PTSUNNY   78  60  53 NE13      30.06F
LEBANON        CLOUDY    75  60  59 N7        30.09F
MT WASHINGTON  NOT AVBL
$$

VTZ005-007-008-211700-
VERMONT

CITY           SKY/WX    TMP DP  RH WIND       PRES   REMARKS
ST JOHNSBURY     N/A     73  55  53 MISG      30.10F
MONTPELIER     MOSUNNY   70  61  73 CALM      30.16F
BURLINGTON     MOSUNNY   72  60  66 N7        30.12F
$$

MAZ007-012-024-CTZ003-RIZ002-NYZ038-NYZ072-211700-
SOUTHERN NEW ENGLAND AND NY

CITY           SKY/WX    TMP DP  RH WIND       PRES   REMARKS
BOSTON         CLOUDY    68  52  56 N29G39    30.02S
WORCESTER      CLOUDY    67  57  70 NE13G23   30.05S
NANTUCKET      LGT RAIN  62  62 100 N35G49    29.79S FOG
PROVIDENCE     PTSUNNY   72  60  66 N20G37    29.98S
HARTFORD       CLOUDY    76  63  64 N13       30.02S
ALBANY         CLOUDY    73  63  70 NE6       30.08F
NEW YORK CITY  CLOUDY    79  64  60 N13       30.00F
$$

ANZ081-ANZ082-ANZ150-NHZ014-MEZ023>029-211700-
COASTAL MARINE OBSERVATIONS

STATION/POSITION TIME  TEMP    WIND        PRES    WAVE
                       AIR SEA DIR/SP/G            HT/PER
                 (UTC) (F)     (DEG/KT/KT) (MB)    (FT/S)
MOUNT DESERT ROC 1600   60      20/ 29/ 32 1017.5F
MATINICUS ROCK   1600   61      40/ 25/ 27 1017.1F
ISLE OF SHOALS   1600   64      20/ 23/ 26 1016.8R
JEFFREYS LEDGE   1536      63                N/A    10/10
CASHES LEDGE BUO 1450   62 62              1014.8    9/ 8
GEORGES BANK BUO 1450   74 76               999.3   15/10
$$

.............KEY..............
   WCI - WIND CHILL
   TC  - TEMPERATURE IN CELSIUS
   VSB - VISIBILITY IN MILES
   HX  - HEAT INDEX
   FAIR- INDICATES FEW OR NO CLOUDS BELOW 12,000 FT, WITH NO
         SIGNIFICANT WEATHER AND/OR OBSTRUCTIONS TO VISIBILITY.






USA.gov is the U.S. government's official web portal to all federal, state and local government web resources and services.